SP1GDK-10 Weather Reports


time (UTC)temp
C
wind
direction
speed
KPH
gust
KPH
rain 1hr
cm
rain 24hr
cm
rain mn
cm
humidity
%
barometer
mb
20260502151923 23 0.0 0.0 0.00 0.00 0.00 28 1018.0
20260502150921 23 0.0 0.0 0.00 0.00 0.00 30 1018.2
20260502122938 23 0.0 0.0 0.00 0.00 0.00 33 1020.5
20260502115914 23 0.0 0.0 0.00 0.00 0.00 33 1021.0
20260502114914 22 0.0 0.0 0.00 0.00 0.00 33 1021.3
20260502111916 22 0.0 0.0 0.00 0.00 0.00 34 1021.5
20260502110913 22 0.0 0.0 0.00 0.00 0.00 34 1021.7
20260502105912 22 0.0 0.0 0.00 0.00 0.00 35 1021.9
20260502104914 22 0.0 0.0 0.00 0.00 0.00 35 1021.8
20260502103916 22 0.0 0.0 0.00 0.00 0.00 36 1022.0
20260502102912 22 0.0 0.0 0.00 0.00 0.00 35 1022.0
20260502101917 22 0.0 0.0 0.00 0.00 0.00 35 1022.2
20260502100916 22 0.0 0.0 0.00 0.00 0.00 36 1022.4
20260502090916 20 0.0 0.0 0.00 0.00 0.00 40 1022.8
20260502065917 15 0.0 0.0 0.00 0.00 0.00 59 1024.3
20260502063920 14 0.0 0.0 0.00 0.00 0.00 63 1024.4
20260502062916 14 0.0 0.0 0.00 0.00 0.00 64 1024.5
20260502061916 13 0.0 0.0 0.00 0.00 0.00 65 1024.6
20260502060914 13 0.0 0.0 0.00 0.00 0.00 64 1024.6
20260502055914 13 0.0 0.0 0.00 0.00 0.00 64 1024.6
20260502054919 13 0.0 0.0 0.00 0.00 0.00 65 1024.6
20260502053915 13 0.0 0.0 0.00 0.00 0.00 66 1024.7
20260502052913 13 0.0 0.0 0.00 0.00 0.00 67 1024.8
20260502051918 12 0.0 0.0 0.00 0.00 0.00 69 1024.8
20260502050914 12 0.0 0.0 0.00 0.00 0.00 74 1024.9
20260502045915 11 0.0 0.0 0.00 0.00 0.00 86 1024.9
20260502044916 10 0.0 0.0 0.00 0.00 0.00 96 1024.8
20260502043916 9 0.0 0.0 0.00 0.00 0.00 10 1025.1
20260502042914 9 0.0 0.0 0.00 0.00 0.00 10 1025.1
20260502041913 8 0.0 0.0 0.00 0.00 0.00 10 1025.1
20260502040912 8 0.0 0.0 0.00 0.00 0.00 10 1025.1
20260502035913 8 0.0 0.0 0.00 0.00 0.00 10 1025.1
20260502034912 8 0.0 0.0 0.00 0.00 0.00 10 1025.2
20260502033912 8 0.0 0.0 0.00 0.00 0.00 10 1025.3
20260502032917 8 0.0 0.0 0.00 0.00 0.00 10 1025.3
20260502031913 8 0.0 0.0 0.00 0.00 0.00 10 1025.3
20260502030917 8 0.0 0.0 0.00 0.00 0.00 10 1025.4
20260502025913 8 0.0 0.0 0.00 0.00 0.00 10 1025.5
20260502024915 8 0.0 0.0 0.00 0.00 0.00 10 1025.5
20260502023917 8 0.0 0.0 0.00 0.00 0.00 10 1025.4
20260502022917 8 0.0 0.0 0.00 0.00 0.00 10 1025.4
20260502021912 8 0.0 0.0 0.00 0.00 0.00 10 1025.5
20260502015915 8 0.0 0.0 0.00 0.00 0.00 10 1025.6
20260502014915 8 0.0 0.0 0.00 0.00 0.00 10 1025.6
20260502013914 8 0.0 0.0 0.00 0.00 0.00 10 1025.7
20260502012913 8 0.0 0.0 0.00 0.00 0.00 10 1025.7
20260502011914 8 0.0 0.0 0.00 0.00 0.00 10 1025.8
20260502010915 8 0.0 0.0 0.00 0.00 0.00 10 1025.8
20260502005914 8 0.0 0.0 0.00 0.00 0.00 10 1025.8
20260502004912 8 0.0 0.0 0.00 0.00 0.00 10 1025.8
20260502003915 9 0.0 0.0 0.00 0.00 0.00 10 1025.9
20260502002921 9 0.0 0.0 0.00 0.00 0.00 10 1026.0
20260502001913 9 0.0 0.0 0.00 0.00 0.00 10 1026.0
20260501235913 9 0.0 0.0 0.00 0.00 0.00 10 1026.1
20260501234913 10 0.0 0.0 0.00 0.00 0.00 10 1026.1
20260501233914 10 0.0 0.0 0.00 0.00 0.00 96 1026.2
20260501232914 10 0.0 0.0 0.00 0.00 0.00 92 1026.2
20260501231914 10 0.0 0.0 0.00 0.00 0.00 96 1026.3
20260501230914 10 0.0 0.0 0.00 0.00 0.00 10 1026.3
20260501225913 10 0.0 0.0 0.00 0.00 0.00 10 1026.4
20260501223920 10 0.0 0.0 0.00 0.00 0.00 10 1026.5
20260501222915 10 0.0 0.0 0.00 0.00 0.00 10 1026.4
20260501221915 10 0.0 0.0 0.00 0.00 0.00 83 1026.4
20260501220912 10 0.0 0.0 0.00 0.00 0.00 66 1026.6
20260501215916 11 0.0 0.0 0.00 0.00 0.00 58 1026.6
20260501214913 11 0.0 0.0 0.00 0.00 0.00 55 1026.7
20260501213913 11 0.0 0.0 0.00 0.00 0.00 53 1026.8
20260501212917 11 0.0 0.0 0.00 0.00 0.00 50 1026.8
20260501210918 12 0.0 0.0 0.00 0.00 0.00 47 1026.6
20260501205913 12 0.0 0.0 0.00 0.00 0.00 45 1026.6
20260501204916 12 0.0 0.0 0.00 0.00 0.00 45 1026.7
20260501203915 12 0.0 0.0 0.00 0.00 0.00 44 1026.6
20260501201914 13 0.0 0.0 0.00 0.00 0.00 43 1026.8
20260501200917 13 0.0 0.0 0.00 0.00 0.00 43 1026.8
20260501195916 13 0.0 0.0 0.00 0.00 0.00 42 1026.9
20260501194912 13 0.0 0.0 0.00 0.00 0.00 41 1027.0
20260501192918 14 0.0 0.0 0.00 0.00 0.00 40 1026.9
20260501191957 14 0.0 0.0 0.00 0.00 0.00 39 1026.6
20260501190913 15 0.0 0.0 0.00 0.00 0.00 39 1026.9
20260501184917 15 0.0 0.0 0.00 0.00 0.00 37 1026.8
20260501182916 16 0.0 0.0 0.00 0.00 0.00 36 1026.7
20260501180912 16 0.0 0.0 0.00 0.00 0.00 35 1026.6
20260501174913 17 0.0 0.0 0.00 0.00 0.00 33 1026.5
20260501173912 17 0.0 0.0 0.00 0.00 0.00 33 1026.6
20260501171916 18 0.0 0.0 0.00 0.00 0.00 33 1026.6
20260501170922 18 0.0 0.0 0.00 0.00 0.00 33 1026.6
20260501165915 18 0.0 0.0 0.00 0.00 0.00 33 1026.6
20260501164915 18 0.0 0.0 0.00 0.00 0.00 33 1026.6
20260501163916 17 0.0 0.0 0.00 0.00 0.00 34 1024.3
20260501162914 19 0.0 0.0 0.00 0.00 0.00 33 1026.6
20260501161921 19 0.0 0.0 0.00 0.00 0.00 34 1026.6
20260501160920 20 0.0 0.0 0.00 0.00 0.00 33 1026.7
20260501155914 20 0.0 0.0 0.00 0.00 0.00 33 1026.7